EW9530 Weather Reports


Display with metric or nautical units.
time (UTC)temp
F
wind
direction
speed
MPH
gust
MPH
rain 1hr
in
rain 24hr
in
rain mn
in
humidity
%
barometer
mb
20260508234651 54 24 2.0 5.0 0.00 0.00 0.00 90 1017.0
20260508233139 54 38 2.0 4.0 0.00 0.00 0.00 90 1017.0
20260508231651 54 57 1.0 4.0 0.00 0.00 0.00 90 1017.1
20260508230149 54 50 2.0 5.0 0.00 0.00 0.00 90 1017.1
20260508224649 54 35 0.0 2.0 0.00 0.00 0.00 90 1017.1
20260508223157 54 50 0.0 0.0 0.00 0.00 0.00 89 1017.2
20260508221651 55 50 0.0 1.0 0.00 0.00 0.00 88 1017.2
20260508220150 55 50 0.0 3.0 0.00 0.00 0.00 87 1017.1
20260508214650 56 50 0.0 0.0 0.00 0.00 0.00 86 1017.1
20260508213155 57 126 0.0 0.0 0.00 0.00 0.00 86 1017.1
20260508211651 57 126 0.0 0.0 0.00 0.00 0.00 86 1017.1
20260508210149 58 126 0.0 0.0 0.00 0.00 0.00 84 1017.0
20260508203155 59 126 0.0 0.0 0.00 0.00 0.00 82 1016.9
20260508201652 60 126 0.0 3.0 0.00 0.00 0.00 81 1016.5
20260508194653 61 146 1.0 6.0 0.00 0.00 0.00 79 1016.1
20260508193138 61 149 1.0 5.0 0.00 0.00 0.00 77 1016.0
20260508191653 62 178 2.0 7.0 0.00 0.00 0.00 76 1015.8
20260508184650 63 136 4.0 10.0 0.00 0.00 0.00 74 1015.5
20260508183156 63 107 1.0 5.0 0.00 0.00 0.00 72 1015.4
20260508181652 63 146 3.0 9.0 0.00 0.00 0.00 71 1015.3
20260508180149 64 115 4.0 13.0 0.00 0.00 0.00 70 1015.3
20260508174649 64 126 3.0 10.0 0.00 0.00 0.00 70 1015.1
20260508173135 64 169 2.0 11.0 0.00 0.00 0.00 70 1014.9
20260508171651 65 136 4.0 10.0 0.00 0.00 0.00 69 1014.9
20260508164651 66 136 4.0 10.0 0.00 0.00 0.00 67 1014.5
20260508163153 66 146 4.0 8.0 0.00 0.00 0.00 68 1014.5
20260508161651 66 123 2.0 8.0 0.00 0.00 0.00 66 1014.5
20260508160151 66 141 3.0 10.0 0.00 0.00 0.00 66 1014.7
20260508154655 67 142 4.0 10.0 0.00 0.00 0.00 63 1014.7
20260508153139 68 124 3.0 10.0 0.00 0.00 0.00 61 1014.6
20260508151650 68 130 5.0 11.0 0.00 0.00 0.00 60 1014.6
20260508144652 69 96 5.0 11.0 0.00 0.00 0.00 57 1014.7
20260508143155 69 178 1.0 9.0 0.00 0.00 0.00 56 1014.6
20260508141654 69 110 1.0 6.0 0.00 0.00 0.00 56 1014.8
20260508134647 68 69 1.0 8.0 0.00 0.00 0.00 56 1015.3
20260508133156 67 82 4.0 8.0 0.00 0.00 0.00 61 1015.4
20260508131650 66 63 2.0 7.0 0.00 0.00 0.00 62 1015.7
20260508124651 66 134 3.0 12.0 0.00 0.00 0.00 64 1015.4
20260508123200 66 157 4.0 11.0 0.00 0.00 0.00 65 1015.4
20260508121652 66 155 3.0 11.0 0.00 0.00 0.00 65 1015.4
20260508114649 67 121 2.0 8.0 0.00 0.00 0.00 63 1015.3
20260508113154 67 142 2.0 9.0 0.00 0.00 0.00 60 1015.3
20260508104650 67 115 1.0 8.0 0.00 0.00 0.00 56 1015.4
20260508103158 67 56 3.0 9.0 0.00 0.00 0.00 57 1015.7
20260508101654 67 147 3.0 9.0 0.00 0.00 0.00 57 1015.8
20260508094650 66 166 2.0 10.0 0.00 0.00 0.00 60 1016.0
20260508093142 64 178 2.0 7.0 0.00 0.00 0.00 65 1016.0
20260508091650 62 294 0.0 2.0 0.00 0.00 0.00 70 1016.0
20260508090149 61 256 0.0 2.0 0.00 0.00 0.00 71 1016.0
20260508084651 61 14 1.0 3.0 0.00 0.00 0.00 72 1016.0
20260508083155 60 11 1.0 4.0 0.00 0.00 0.00 73 1015.8
20260508081652 59 5 1.0 3.0 0.00 0.00 0.00 75 1015.7
20260508080157 57 19 0.0 5.0 0.00 0.00 0.00 76 1015.7
20260508074651 56 12 1.0 5.0 0.00 0.00 0.00 79 1015.7
20260508073137 55 5 0.0 6.0 0.00 0.00 0.00 82 1015.7
20260508071652 54 22 2.0 6.0 0.00 0.00 0.00 84 1015.6
20260508064651 52 5 3.0 8.0 0.00 0.00 0.00 90 1015.6
20260508063142 50 21 0.0 5.0 0.00 0.00 0.00 92 1015.6
20260508061652 49 67 2.0 5.0 0.00 0.00 0.00 93 1015.6
20260508060149 49 56 2.0 5.0 0.00 0.00 0.00 93 1015.4
20260508054628 48 44 2.0 5.0 0.00 0.00 0.00 94 1015.5
20260508053136 47 48 3.0 6.0 0.00 0.00 0.00 94 1015.2
20260508051652 46 44 2.0 5.0 0.00 0.00 0.00 93 1015.0
20260508044651 47 40 1.0 4.0 0.00 0.00 0.00 93 1014.8
20260508043154 47 41 2.0 5.0 0.00 0.00 0.00 93 1014.7
20260508041649 47 30 1.0 2.0 0.00 0.00 0.00 93 1014.7
20260508034651 48 16 0.0 4.0 0.00 0.00 0.00 93 1014.5
20260508033155 48 42 2.0 4.0 0.00 0.00 0.00 92 1014.6
20260508031651 49 5 1.0 4.0 0.00 0.00 0.00 93 1014.6
20260508030151 49 29 2.0 5.0 0.00 0.00 0.00 92 1014.6
20260508024652 50 5 2.0 5.0 0.00 0.00 0.00 92 1014.6
20260508023138 50 52 0.0 0.0 0.00 0.00 0.00 92 1014.7
20260508021652 51 52 0.0 0.0 0.00 0.00 0.00 92 1014.7
20260508020149 51 52 0.0 4.0 0.00 0.00 0.00 92 1014.8
20260508014651 51 46 2.0 5.0 0.00 0.00 0.00 91 1014.8
20260508013157 52 48 0.0 0.0 0.00 0.00 0.00 91 1015.0
20260508011651 52 48 0.0 3.0 0.00 0.00 0.00 91 1015.1
20260508004652 53 24 0.0 0.0 0.00 0.00 0.00 90 1015.3
20260508003140 53 24 0.0 3.0 0.00 0.00 0.00 90 1015.4
20260508001651 53 24 0.0 3.0 0.00 0.00 0.00 90 1015.4